Flag for U.S.A. Weather past 2 weeks in Philadelphia, Pennsylvania, U.S.A.

Now
44 °F

Clear.


Feels Like: 40 °F
Forecast: 38 / 50 °F
Wind: 7 mph from Northwest

Location: Philadelphia International Airport

Current Time: Mar 31, 2015 at 6:36:22 AM

Latest Report: Mar 31, 2015 at 5:54 AM


Visibility: 10 mi

Pressure: 29.90 "Hg

Humidity: 47%

Dew point: 25 °F

Location of PhiladelphiaLocation

Historic Weather in Philadelphia — Graph

°F

Philadelphia temperature yesterday

Maximum temperature yesterday: 57 °F (at 2:54 PM)
Minimum temperature yesterday: 35 °F (at 4:54 AM)
Average temperature yesterday: 46 °F

Past Weeks' High & Low Weather Summary

 TemperatureHumidityPressure
High67 °F (Mar 17, 11:54 AM)97% (Mar 26, 6:54 AM)30.42 "Hg (Mar 26, 6:54 AM)
Low26 °F (Mar 29, 4:54 AM)16% (Mar 18, 2:54 PM)29.59 "Hg (Mar 26, 7:54 PM)
Average41 °F51%30.07 "Hg
* Reported Mar 16 4:54 AM — Mar 31 4:54 AM, Philadelphia, Weather by CustomWeather, © 2015

Note: Actual official high and low records may vary slightly from our data, if they occured in-between our weather recording intervals... More about our weather records

Advertising

Philadelphia weather history for previous 24 hours

 ConditionsComfort  
Time TempWeatherWind HumidityBarometerVisibility
4:54 AM
Tue, Mar 31
40 °FClear.5 mph51%29.90 "Hg10 mi
3:54 AM44 °FClear.7 mph45%29.88 "Hg10 mi
2:54 AM41 °FPartly cloudy.7 mph55%29.88 "Hg10 mi
1:54 AM43 °FClear.6 mph47%29.89 "Hg10 mi
12:54 AM44 °FClear.6 mph45%29.89 "Hg10 mi
11:54 PM
Mon, Mar 30
45 °FPassing clouds.8 mph44%29.89 "Hg10 mi
10:54 PM47 °FPassing clouds.9 mph39%29.90 "Hg10 mi
9:54 PM48 °FClear.12 mph37%29.90 "Hg10 mi
8:54 PM53 °FClear.10 mph30%29.88 "Hg10 mi
7:54 PM54 °FPassing clouds.15 mph29%29.86 "Hg10 mi
6:54 PM56 °FScattered clouds.14 mph27%29.84 "Hg10 mi
5:54 PM56 °FScattered clouds.18 mph27%29.83 "Hg10 mi
4:54 PM56 °FPartly sunny.24 mph30%29.82 "Hg10 mi
3:54 PM56 °FPartly sunny.16 mph34%29.81 "Hg10 mi
2:54 PM57 °FBroken clouds.21 mph33%29.82 "Hg10 mi
1:54 PM54 °FBroken clouds.17 mph37%29.84 "Hg10 mi
12:54 PM52 °FBroken clouds.14 mph38%29.85 "Hg10 mi
11:54 AM48 °FBroken clouds.17 mph48%29.87 "Hg10 mi
10:54 AM43 °FOvercast.17 mph62%29.89 "Hg10 mi
9:54 AM41 °FOvercast.15 mph74%29.90 "Hg10 mi
8:54 AM38 °FMostly cloudy.15 mph79%29.91 "Hg10 mi
7:54 AM36 °FCloudy.14 mph82%29.93 "Hg10 mi
6:54 AM36 °FMostly cloudy.15 mph82%29.96 "Hg10 mi
Weather by CustomWeather, © 2015

See weather overviewHow to use our weather pages